軌道要素
Epoch 2022 Jan. 21.0 TT = JDT 2459600.5
T 2021 Nov. 3.10885 TT Rudenko
q 2.0089959 (2000.0) P Q
n 0.13971567 Peri. 1.82600 -0.51625864 -0.85054707
a 3.6782336 Node 119.26794 +0.78429813 -0.51653953
e 0.4538150 Incl. 6.59793 +0.34402539 -0.09877552
P 7.05
From 1614 observations 1970 Dec. 27-2022 Feb. 2, mean residual 0".6.
Nongravitational parameters A1 = +0.02, A2 = -0.0075.
|